Flag for U.S.A. Weather past 2 weeks in Kansas City, Missouri, U.S.A.

Now
60 °F

Clear.


Feels Like: 60 °F
Forecast: 52 / 70 °F
Wind: 8 mph from Northeast

Location: Kansas City Downtown Airport

Current Time: Oct 21, 2014 at 10:11:46 PM

Latest Report: Oct 21, 2014 at 9:54 PM


Visibility: 10 mi

Pressure: 30.10 "Hg

Humidity: 53%

Dew point: 43 °F

Location of Kansas CityLocation

Historic Weather in Kansas City — Graph

°F

Kansas City temperature yesterday

Maximum temperature yesterday: 75 °F (at 2:54 PM)
Minimum temperature yesterday: 52 °F (at 6:54 AM)
Average temperature yesterday: 62 °F

Past Weeks' High & Low Weather Summary

 TemperatureHumidityPressure
High79 °F (Oct 16, 3:54 PM)93% (Oct 8, 5:54 AM)31.00 "Hg (Oct 8, 5:54 AM)
Low43 °F (Oct 11, 7:54 AM)30% (Oct 15, 3:54 PM)29.47 "Hg (Oct 13, 2:54 PM)
Average59 °F68%29.96 "Hg
* Reported Oct 6 8:54 PM — Oct 21 8:54 PM, Kansas City, Weather by CustomWeather, © 2014

Note: Actual official high and low records may vary slightly from our data, if they occured in-between our weather recording intervals... More about our weather records

Advertising

Kansas City weather history for previous 24 hours

 ConditionsComfort  
Time TempWeatherWind HumidityBarometerVisibility
8:54 PM
Oct 21
62 °FClear.6 mph52%30.08 "Hg10 mi
7:54 PM64 °FClear.6 mph50%30.07 "Hg10 mi
6:54 PM67 °FSunny.6 mph44%30.06 "Hg10 mi
5:54 PM70 °FSunny.8 mph39%30.05 "Hg10 mi
4:54 PM74 °FSunny.3 mph36%30.05 "Hg10 mi
3:54 PM74 °FSunny.3 mph33%30.06 "Hg10 mi
2:54 PM75 °FSunny.3 mph33%30.07 "Hg10 mi
1:54 PM72 °FSunny.3 mph34%30.09 "Hg10 mi
12:54 PM71 °FSunny.3 mph38%30.11 "Hg10 mi
11:54 AM67 °FSunny.No wind47%30.13 "Hg10 mi
10:54 AM63 °FSunny.No wind56%30.14 "Hg8 mi
9:54 AM56 °FSunny.No wind84%30.13 "Hg5 mi
8:54 AM50 °FSunny.No wind89%30.13 "Hg8 mi
7:54 AM46 °FClear.No wind89%30.12 "Hg8 mi
6:54 AM46 °FClear.No wind93%30.11 "Hg10 mi
5:54 AM45 °FClear.No wind93%30.10 "Hg9 mi
4:54 AM47 °FClear.No wind93%30.09 "Hg8 mi
3:54 AM48 °FClear.3 mph89%30.07 "Hg7 mi
2:54 AM49 °FClear.No wind90%30.07 "Hg10 mi
1:54 AM51 °FClear.No wind86%30.06 "Hg10 mi
12:54 AM51 °FClear.No wind86%30.07 "Hg10 mi
11:54 PM
Oct 20
52 °FClear.No wind86%30.06 "Hg10 mi
10:54 PM54 °FClear.No wind80%30.06 "Hg10 mi
Weather by CustomWeather, © 2014

See weather overviewHow to use our weather pages